Weather History for Penn Yan, NY

Change the Weather History Date:

Tuesday, June 25, 2013

  Actual Average (KITH) Record (KITH)
Temperature  
Mean Temperature 75 °F -  
Max Temperature 84 °F 77 °F 92 °F (1952)
Min Temperature 68 °F 54 °F 35 °F (1979)
Cooling Degree Days 10    
Growing Degree Days 25 (Base 50)    
Moisture  
Dew Point 64 °F    
Average Humidity 68    
Maximum Humidity 93    
Minimum Humidity 52    
Precipitation  
Precipitation 0.00 in - - ()
Sea Level Pressure  
Sea Level Pressure 29.88 in    
Wind  
Wind Speed 9 mph (SW)    
Max Wind Speed 15 mph    
Max Gust Speed 24 mph    
Visibility 10 miles    
Events Rain    
Averages and records for this station are not official NWS values.
T = Trace of Precipitation, MM = Missing Value Source: NWS Daily Summary

Daily Weather History Graph

Daily Weather History Graph

Search for Another Location

Airport:

Trip Planner

Search our weather history database for the weather conditions in past years. The results will help you decide how hot, cold, wet, or windy it might be!

Date:

Astronomy

Jun. 25, 2013 Rise Set
Actual Time 5:31 AM EDT 8:50 PM EDT
Civil Twilight 4:56 AM EDT 9:25 PM EDT
Nautical Twilight 4:11 AM EDT 10:10 PM EDT
Astronomical Twilight 3:15 AM EDT 11:06 PM EDT
Moon 10:29 PM EDT 8:12 AM EDT
Length of Visible Light 16h 28m
Length of Day
15h 18m
Waning Gibbous, 93% of the Moon is Illuminated
Jun 25
Waning Gibbous
Jun 30
Last Quarter
Jul 8
New
Jul 15
First Quarter
Jul 22
Full

Hourly Weather History & Observations

Time (EDT) Temp. Heat Index Dew Point Humidity Pressure Visibility Wind Dir Wind Speed Gust Speed Precip Events Conditions
12:53 AM 72.0 °F - 64.0 °F 76% 29.97 in 10.0 mi SSW 10.4 mph - N/A   Clear
1:53 AM 71.1 °F - 64.0 °F 78% 29.96 in 10.0 mi SSW 6.9 mph - N/A   Clear
2:53 AM 69.1 °F - 64.9 °F 87% 29.95 in 9.0 mi SW 6.9 mph - N/A   Clear
3:53 AM 69.1 °F - 66.0 °F 90% 29.93 in 8.0 mi SW 8.1 mph - N/A   Clear
4:53 AM 68.0 °F - 66.0 °F 93% 29.93 in 7.0 mi SSW 5.8 mph - N/A   Clear
5:53 AM 69.1 °F - 64.9 °F 87% 29.92 in 8.0 mi SW 9.2 mph - N/A   Clear
6:53 AM 71.1 °F - 64.9 °F 81% 29.93 in 10.0 mi SW 6.9 mph - N/A   Clear
7:53 AM 73.9 °F - 64.9 °F 73% 29.93 in 10.0 mi SSW 10.4 mph - N/A   Clear
8:53 AM 75.0 °F - 64.9 °F 71% 29.92 in 10.0 mi SSW 10.4 mph - N/A   Clear
9:53 AM 77.0 °F - 66.0 °F 69% 29.91 in 10.0 mi South 8.1 mph - N/A   Clear
10:53 AM 78.1 °F - 68.0 °F 71% 29.91 in 9.0 mi SW 10.4 mph - N/A   Mostly Cloudy
11:53 AM 81.0 °F 83.0 °F 66.0 °F 60% 29.89 in 10.0 mi WSW 9.2 mph - N/A   Scattered Clouds
12:53 PM 73.9 °F - 64.0 °F 71% 29.89 in 9.0 mi WSW 15.0 mph 24.2 mph 0.00 in Rain Light Rain
1:53 PM 80.1 °F 81.5 °F 63.0 °F 56% 29.87 in 10.0 mi West 12.7 mph 20.7 mph 0.00 in   Clear
2:53 PM 82.0 °F 83.4 °F 64.0 °F 54% 29.86 in 10.0 mi West 11.5 mph 20.7 mph N/A   Scattered Clouds
3:53 PM 82.0 °F 83.8 °F 64.9 °F 56% 29.86 in 10.0 mi West 6.9 mph 18.4 mph N/A   Partly Cloudy
4:53 PM 82.0 °F 83.8 °F 64.9 °F 56% 29.84 in 10.0 mi West 11.5 mph - N/A   Clear
5:53 PM 82.0 °F 83.8 °F 64.9 °F 56% 29.82 in 10.0 mi WSW 9.2 mph - N/A   Mostly Cloudy
6:53 PM 82.0 °F 83.1 °F 63.0 °F 52% 29.81 in 10.0 mi WSW 9.2 mph 19.6 mph N/A   Partly Cloudy
7:53 PM 79.0 °F - 63.0 °F 58% 29.82 in 10.0 mi WSW 6.9 mph - N/A   Clear
8:53 PM 77.0 °F - 60.1 °F 56% 29.82 in 10.0 mi West 4.6 mph - N/A   Partly Cloudy
9:53 PM 73.9 °F - 62.1 °F 66% 29.84 in 10.0 mi SSW 4.6 mph - N/A   Mostly Cloudy
10:53 PM 75.0 °F - 60.1 °F 60% 29.83 in 10.0 mi WSW 8.1 mph - N/A   Scattered Clouds
11:53 PM 73.0 °F - 61.0 °F 66% 29.82 in 10.0 mi SW 8.1 mph - N/A   Partly Cloudy